Location: Mohawk View
(42.7837°N, 73.7885°W)
Time: 13:02:51
(UTC+00:00)

Cosmos 2150 Rocket - Pass Details

Date: 17 June 2021
Orbit: 749 x 808 km, 74.0° (Epoch: 26 July)

Event Time Altitude Azimuth Distance (km) Brightness Sun altitude
Rises 07:40:01 0° 341° (NNW) 3,215 7.7 -13.8°
Reaches altitude 10° 07:42:23 10° 343° (NNW) 2,291 6.9 -13.6°
Maximum altitude 07:47:35 74° 69° (ENE) 797 4.2 -13.0°
Drops below altitude 10° 07:52:49 10° 155° (SSE) 2,309 6.3 -12.3°
Sets 07:55:12 0° 157° (SSE) 3,241 7.0 -12.0°
